CST,Max TemperatureF,Mean TemperatureF,Min TemperatureF,Max Dew PointF,MeanDew PointF,Min DewpointF,Max Humidity, Mean Humidity, Min Humidity, Max Sea Level PressureIn, Mean Sea Level PressureIn, Min Sea Level PressureIn, Max VisibilityMiles, Mean VisibilityMiles, Min VisibilityMiles, Max Wind SpeedMPH, Mean Wind SpeedMPH, Max Gust SpeedMPH,PrecipitationIn, CloudCover, Events, WindDirDegrees
2013-1-1,32,22,11,22,15,8,94,79,57,30.12,30.06,29.98,10,10,10,13,8,,0.00,1,,245
2013-1-2,32,27,22,27,23,16,93,80,69,30.24,30.07,29.98,10,9,2,22,13,28,0.00,8,Snow,309
2013-1-3,28,20,12,23,14,8,91,74,57,30.30,30.24,30.15,10,10,5,17,11,24,0.00,4,,265
2013-1-4,43,29,15,25,15,7,79,61,37,30.15,30.07,30.01,10,10,10,10,6,,0.00,0,,243
2013-1-5,39,28,17,22,15,10,81,61,36,30.21,30.06,29.96,10,10,10,29,12,39,0.00,0,,296
2013-1-6,44,30,16,25,18,11,83,66,35,30.21,30.07,29.85,10,10,10,24,10,33,0.00,0,,224
2013-1-7,47,34,22,23,20,16,84,63,29,30.00,29.91,29.85,10,10,10,16,7,,0.00,0,,231
2013-1-8,51,36,22,28,23,17,80,63,37,30.15,29.86,29.71,10,10,10,24,10,33,0.00,1,,253
2013-1-9,53,38,22,28,24,18,85,64,33,30.26,30.17,30.10,10,10,10,28,11,34,0.00,0,,211
2013-1-10,48,40,32,35,29,21,95,71,41,30.09,29.78,29.50,10,10,7,26,19,33,0.00,4,,186
2013-1-11,36,25,12,35,25,8,99,90,78,29.75,29.49,29.37,10,4,0,29,14,38,0.00,8,Snow,297
2013-1-12,12,8,5,6,1,-2,78,71,62,30.11,29.98,29.76,10,9,2,24,16,33,0.00,4,,308
2013-1-13,18,10,2,8,2,-4,78,73,61,30.21,30.14,30.08,10,9,4,14,9,16,0.00,4,,286
2013-1-14,23,11,-1,8,1,-7,79,68,47,30.28,30.21,30.16,10,10,10,18,7,23,0.00,0,,237
2013-1-15,32,18,4,30,7,-5,93,66,47,30.16,30.03,29.89,10,10,4,16,11,18,0.00,2,Snow,238
2013-1-16,47,38,29,31,27,24,92,67,40,30.24,30.02,29.87,10,10,10,31,14,38,0.00,2,Snow,286
2013-1-17,48,37,26,26,23,20,80,64,36,30.38,30.29,30.10,10,10,10,12,7,,0.00,1,,260
2013-1-18,55,43,31,25,21,16,69,50,22,30.10,29.94,29.86,10,10,10,16,11,18,0.00,0,,253
2013-1-19,50,34,18,25,21,10,82,54,33,30.28,30.08,29.86,10,10,10,24,12,32,0.00,1,,315
2013-1-20,22,17,11,14,10,7,86,74,56,30.36,30.28,30.17,10,10,2,17,7,23,0.00,5,Snow,16
2013-1-21,14,9,4,8,4,-2,82,76,68,30.35,30.26,30.18,10,8,2,12,6,,0.00,8,Snow,7
2013-1-22,38,24,10,21,15,6,86,75,48,30.18,30.10,30.05,10,10,7,14,7,,0.00,4,,176
2013-1-23,24,15,6,17,11,3,86,73,55,30.38,30.23,30.07,10,10,10,17,7,21,0.00,0,,357
2013-1-24,29,17,5,20,7,0,82,66,42,30.37,30.11,29.91,10,10,10,28,12,34,0.00,0,,179
2013-1-25,52,37,21,23,20,18,85,60,26,30.16,30.10,30.05,10,10,10,13,8,,0.00,0,,288
2013-1-26,58,40,21,29,24,18,89,60,27,30.09,29.92,29.80,10,10,10,15,8,16,0.00,1,,183
2013-1-27,55,46,32,42,35,26,95,77,53,29.80,29.70,29.64,10,9,2,13,4,,0.02,5,Rain,220
2013-1-28,36,30,24,33,29,23,97,93,77,29.78,29.72,29.66,10,6,0,17,7,21,0.02,5,Snow,330
2013-1-29,32,26,19,29,26,16,96,89,78,29.89,29.73,29.68,10,9,1,34,9,39,0.03,7,Snow,325
2013-1-30,19,14,8,15,9,3,86,76,66,29.91,29.86,29.80,10,8,1,31,18,45,0.00,6,Snow,317
2013-1-31,11,6,0,7,-4,-9,85,70,56,30.25,30.13,29.89,10,9,2,28,10,36,0.00,4,Snow,306